TimeEDT,TemperatureF,Dew PointF,Humidity,Sea Level PressureIn,VisibilityMPH,Wind Direction,Wind SpeedMPH,Gust SpeedMPH,PrecipitationIn,Events,Conditions,WindDirDegrees,DateUTC
12:53 AM,59.0,57.0,93,30.05,3.0,Calm,Calm,-,N/A,,Clear,0,2013-10-04 04:53:00
1:53 AM,59.0,57.9,96,30.05,3.0,Calm,Calm,-,N/A,,Mostly Cloudy,0,2013-10-04 05:53:00
2:27 AM,59.0,57.2,94,30.05,2.5,Calm,Calm,-,N/A,,Clear,0,2013-10-04 06:27:00
2:41 AM,59.0,57.2,94,30.05,3.0,Calm,Calm,-,N/A,,Partly Cloudy,0,2013-10-04 06:41:00
2:53 AM,59.0,57.9,96,30.04,3.0,Calm,Calm,-,N/A,,Scattered Clouds,0,2013-10-04 06:53:00
3:01 AM,59.0,57.2,94,30.05,2.5,Calm,Calm,-,N/A,,Scattered Clouds,0,2013-10-04 07:01:00
3:53 AM,57.9,57.0,97,30.04,3.0,Calm,Calm,-,N/A,,Partly Cloudy,0,2013-10-04 07:53:00
4:15 AM,57.2,57.2,100,30.04,2.5,Calm,Calm,-,N/A,,Mostly Cloudy,0,2013-10-04 08:15:00
4:53 AM,59.0,57.9,96,30.04,2.5,Calm,Calm,-,N/A,,Overcast,0,2013-10-04 08:53:00
5:53 AM,57.9,55.9,93,30.05,2.0,Calm,Calm,-,N/A,,Clear,0,2013-10-04 09:53:00
6:02 AM,57.2,57.2,100,30.06,1.5,Calm,Calm,-,N/A,,Clear,0,2013-10-04 10:02:00
6:18 AM,57.2,55.4,94,30.06,2.0,Calm,Calm,-,N/A,,Clear,0,2013-10-04 10:18:00
6:53 AM,59.0,57.9,96,30.06,2.5,Calm,Calm,-,N/A,,Mostly Cloudy,0,2013-10-04 10:53:00
7:19 AM,59.0,57.2,94,30.07,1.5,Calm,Calm,-,N/A,,Mostly Cloudy,0,2013-10-04 11:19:00
7:53 AM,61.0,60.1,97,30.07,1.8,Calm,Calm,-,N/A,,Mostly Cloudy,0,2013-10-04 11:53:00
8:12 AM,62.6,60.8,94,30.08,2.0,Calm,Calm,-,N/A,,Overcast,0,2013-10-04 12:12:00
8:53 AM,64.0,62.1,93,30.09,2.5,Calm,Calm,-,N/A,,Partly Cloudy,0,2013-10-04 12:53:00
9:11 AM,66.2,62.6,88,30.10,3.0,Calm,Calm,-,N/A,,Partly Cloudy,0,2013-10-04 13:11:00
9:53 AM,66.9,64.0,90,30.10,2.0,Calm,Calm,-,0.01,Rain,Rain,0,2013-10-04 13:53:00
10:07 AM,68.0,64.4,88,30.10,4.0,Calm,Calm,-,0.00,Rain,Light Rain,0,2013-10-04 14:07:00
10:53 AM,70.0,64.0,81,30.09,4.0,Calm,Calm,-,0.01,,Haze,0,2013-10-04 14:53:00
11:53 AM,70.0,66.0,87,30.07,3.0,Calm,Calm,-,0.00,Rain,Light Rain,0,2013-10-04 15:53:00
12:53 PM,75.0,66.0,73,30.06,6.0,Calm,Calm,-,0.00,,Haze,0,2013-10-04 16:53:00
1:53 PM,80.1,66.0,62,30.03,9.0,Variable,3.5,-,N/A,,Partly Cloudy,0,2013-10-04 17:53:00
2:53 PM,81.0,66.0,60,30.01,10.0,Variable,5.8,-,N/A,,Scattered Clouds,0,2013-10-04 18:53:00
3:53 PM,84.0,66.0,55,30.00,10.0,Calm,Calm,-,N/A,,Mostly Cloudy,0,2013-10-04 19:53:00
4:53 PM,77.0,63.0,62,30.01,10.0,Variable,4.6,-,N/A,,Clear,0,2013-10-04 20:53:00
5:53 PM,73.0,64.0,73,30.01,10.0,Calm,Calm,-,N/A,,Clear,0,2013-10-04 21:53:00
6:53 PM,66.9,64.0,90,30.01,9.0,Calm,Calm,-,N/A,,Clear,0,2013-10-04 22:53:00
7:53 PM,66.0,64.0,93,30.03,8.0,Calm,Calm,-,N/A,,Mostly Cloudy,0,2013-10-04 23:53:00
8:53 PM,66.9,66.0,97,30.04,7.0,Calm,Calm,-,0.02,,Mostly Cloudy,0,2013-10-05 00:53:00
9:53 PM,66.0,64.0,93,30.04,4.0,Calm,Calm,-,0.00,,Clear,0,2013-10-05 01:53:00
10:41 PM,64.4,64.4,100,30.05,2.5,Calm,Calm,-,N/A,,Clear,0,2013-10-05 02:41:00
10:53 PM,64.9,63.0,93,30.04,3.0,Calm,Calm,-,N/A,,Clear,0,2013-10-05 02:53:00
11:04 PM,64.4,62.6,94,30.05,2.5,Calm,Calm,-,N/A,,Clear,0,2013-10-05 03:04:00
11:27 PM,64.4,62.6,94,30.05,1.5,Calm,Calm,-,N/A,,Partly Cloudy,0,2013-10-05 03:27:00
11:31 PM,64.4,62.6,94,30.05,0.8,Calm,Calm,-,N/A,,Mist,0,2013-10-05 03:31:00
11:53 PM,63.0,62.1,97,30.05,0.2,Calm,Calm,-,N/A,Fog,Fog,0,2013-10-05 03:53:00